Date String (YYYY-MM-DD hh:mm:ss) UTC,Instrument flags,Ambient pressure (hPa),Sample flow (lpm),Bypass flow (lpm),Sample temperature (°C),Ambient temperature (°C),ASC tube jacket temperature (°C),LED temperature (°C),Box temperature (°C),Sample RH (%),Span deviation,Mass concentration (μg/m³),Mass concentration (μg/m³),Mass concentration (μg/m³)
DateTimeUTC,F1_M11,P_M11,Q1_M11,Q2_M11,T1_M11,T2_M11,T3_M11,T4_M11,T5_M11,U1_M11,ZSPAN_M11,X0_M11,X2_M11,X1_M11
2022-04-13 07:00:00,,0817.1,5.00,0.00,21.8,21.8,00.0,30.7,23.6,07.3,0000.0,0006.72,0001.38,0000.62
2022-04-13 07:01:00,,0817.2,5.00,0.00,21.8,21.6,00.0,30.7,23.5,07.2,0000.0,0006.63,0001.36,0000.62
2022-04-13 07:02:00,,0817.2,5.00,0.00,21.8,21.4,00.0,30.7,23.5,07.0,0000.0,0006.52,0001.34,0000.61
2022-04-13 07:03:00,,0817.4,5.00,0.00,21.8,21.3,00.0,30.7,23.5,07.0,0000.0,0005.71,0001.36,0000.61
2022-04-13 07:04:00,,0817.3,5.00,0.00,21.8,21.2,00.0,30.7,23.4,07.2,0000.0,0005.34,0001.39,0000.59
2022-04-13 07:05:00,,0817.2,4.99,0.00,21.7,21.1,00.0,30.7,23.4,07.2,0000.0,0004.49,0001.35,0000.58
2022-04-13 07:06:00,,0817.1,5.01,0.00,21.7,21.0,00.0,30.7,23.4,06.5,0000.0,0004.33,0001.28,0000.56
2022-04-13 07:07:00,,0817.1,5.00,0.00,21.7,20.9,00.0,30.7,23.4,06.3,0000.0,0004.22,0001.25,0000.55
2022-04-13 07:08:00,,0817.1,5.00,0.00,21.7,20.9,00.0,30.7,23.3,06.2,0000.0,0004.28,0001.24,0000.54
2022-04-13 07:09:00,,0817.0,4.99,0.00,21.7,20.8,00.0,30.7,23.2,06.2,0000.0,0004.15,0001.21,0000.52
2022-04-13 07:10:00,,0817.0,5.00,0.00,21.6,20.8,00.0,30.7,23.2,06.1,0000.0,0003.10,0001.19,0000.50
2022-04-13 07:11:00,,0817.1,4.99,0.00,21.6,20.7,00.0,30.7,23.2,06.0,0000.0,0002.57,0001.15,0000.49
2022-04-13 07:12:00,,0817.0,5.00,0.00,21.6,21.1,00.0,30.7,23.3,06.0,0000.0,0002.56,0001.12,0000.48
2022-04-13 07:13:00,,0817.1,5.02,0.00,21.8,22.0,00.0,30.8,23.6,05.9,0000.0,0003.23,0001.10,0000.47
2022-04-13 07:14:00,,0817.2,4.99,0.00,21.9,22.9,00.0,30.8,23.9,05.8,0000.0,0003.80,0001.01,0000.46
2022-04-13 07:15:00,,0817.2,4.99,0.00,22.1,23.3,00.0,30.9,24.1,05.8,0000.0,0004.12,0000.96,0000.46
2022-04-13 07:16:00,,0817.2,5.00,0.00,22.1,23.0,00.0,30.9,24.1,05.9,0000.0,0005.65,0000.96,0000.46
2022-04-13 07:17:00,,0817.2,5.00,0.00,22.1,22.6,00.0,30.9,23.9,05.9,0000.0,0005.62,0000.95,0000.45
2022-04-13 07:18:00,,0817.2,5.00,0.00,22.1,22.2,00.0,30.9,23.9,05.9,0000.0,0005.96,0000.93,0000.46
2022-04-13 07:19:00,,0817.3,4.99,0.00,22.1,22.0,00.0,30.9,23.8,05.9,0000.0,0006.23,0000.95,0000.47
2022-04-13 07:20:00,,0817.3,5.01,0.00,22.1,21.8,00.0,30.9,23.7,05.9,0000.0,0006.14,0000.94,0000.47
2022-04-13 07:21:00,,0817.3,5.00,0.00,22.0,21.6,00.0,30.9,23.7,05.9,0000.0,0006.13,0000.91,0000.47
2022-04-13 07:22:00,,0817.3,5.00,0.00,22.0,21.4,00.0,30.9,23.7,05.9,0000.0,0006.02,0000.88,0000.46
2022-04-13 07:23:00,,0817.3,5.00,0.00,22.0,21.3,00.0,30.9,23.6,06.0,0000.0,0006.05,0000.89,0000.46
2022-04-13 07:24:00,,0817.3,5.00,0.00,22.0,21.2,00.0,30.9,23.6,06.0,0000.0,0006.16,0000.90,0000.47
2022-04-13 07:25:00,,0817.3,4.99,0.00,21.9,21.2,00.0,30.9,23.6,06.0,0000.0,0005.91,0000.94,0000.47
2022-04-13 07:26:00,,0817.3,5.00,0.00,21.9,21.1,00.0,30.9,23.6,06.0,0000.0,0006.71,0000.92,0000.46
2022-04-13 07:27:00,,0817.3,5.00,0.00,21.9,21.1,00.0,30.9,23.6,06.0,0000.0,0005.67,0000.92,0000.46
2022-04-13 07:28:00,,0817.3,5.00,0.00,21.9,21.0,00.0,30.9,23.5,06.0,0000.0,0006.06,0000.96,0000.46
2022-04-13 07:29:00,,0817.3,5.00,0.00,21.8,21.0,00.0,30.9,23.5,06.1,0000.0,0006.16,0001.01,0000.47
2022-04-13 07:30:00,,0817.3,5.00,0.00,21.8,21.0,00.0,30.9,23.5,06.0,0000.0,0006.01,0000.97,0000.47
2022-04-13 07:31:00,,0817.4,5.00,0.00,21.8,21.0,00.0,30.9,23.4,06.0,0000.0,0006.04,0000.99,0000.47
2022-04-13 07:32:00,,0817.3,5.00,0.00,21.9,21.6,00.0,30.9,23.6,06.0,0000.0,0006.10,0001.01,0000.48
2022-04-13 07:33:00,,0817.3,5.00,0.00,22.0,22.5,00.0,31.0,23.9,06.0,0000.0,0006.12,0001.03,0000.48
2022-04-13 07:34:00,,0817.3,5.01,0.00,22.2,23.2,00.0,31.0,24.2,05.9,0000.0,0006.13,0001.03,0000.48
2022-04-13 07:35:00,,0817.3,4.98,0.00,22.2,22.9,00.0,31.0,24.1,06.0,0000.0,0005.36,0000.98,0000.48
2022-04-13 07:36:00,,0817.3,5.00,0.00,22.2,22.6,00.0,31.0,24.1,05.9,0000.0,0004.53,0000.95,0000.48
2022-04-13 07:37:00,,0817.3,5.01,0.00,22.2,22.3,00.0,31.0,24.0,05.8,0000.0,0004.33,0001.01,0000.49
2022-04-13 07:38:00,,0817.4,4.99,0.00,22.2,22.0,00.0,31.1,23.9,05.7,0000.0,0003.06,0001.01,0000.50
2022-04-13 07:39:00,,0817.3,5.00,0.00,22.2,21.9,00.0,31.1,23.9,05.8,0000.0,0002.89,0000.99,0000.50
2022-04-13 07:40:00,,0817.3,5.00,0.00,22.1,21.7,00.0,31.1,23.8,05.9,0000.0,0003.41,0000.96,0000.51
2022-04-13 07:41:00,,0817.4,4.99,0.00,22.1,21.5,00.0,31.1,23.8,05.9,0000.0,0003.16,0000.97,0000.52
2022-04-13 07:42:00,,0817.3,4.99,0.00,22.0,21.3,00.0,31.0,23.7,05.9,0000.0,0003.39,0001.01,0000.52
2022-04-13 07:43:00,,0817.3,5.01,0.00,22.0,21.2,00.0,31.0,23.7,05.9,0000.0,0003.70,0001.00,0000.52
2022-04-13 07:44:00,,0817.3,5.00,0.00,22.0,21.2,00.0,31.0,23.7,05.9,0000.0,0003.95,0001.05,0000.52
2022-04-13 07:45:00,,0817.3,5.00,0.00,22.0,21.1,00.0,31.0,23.6,05.9,0000.0,0003.97,0001.05,0000.52
2022-04-13 07:46:00,,0817.2,5.00,0.00,21.9,21.1,00.0,31.0,23.6,05.9,0000.0,0004.05,0001.08,0000.52
2022-04-13 07:47:00,,0817.3,5.00,0.00,21.9,21.1,00.0,31.0,23.6,05.9,0000.0,0004.15,0001.12,0000.51
2022-04-13 07:48:00,,0817.3,5.00,0.00,21.9,21.0,00.0,31.0,23.6,05.9,0000.0,0004.03,0001.10,0000.51
2022-04-13 07:49:00,,0817.2,4.99,0.00,21.9,21.0,00.0,31.0,23.6,05.8,0000.0,0003.98,0001.09,0000.50
2022-04-13 07:50:00,,0817.2,5.00,0.00,21.9,21.1,00.0,31.0,23.6,05.8,0000.0,0003.98,0001.08,0000.49
2022-04-13 07:51:00,,0817.3,5.00,0.00,22.0,21.9,00.0,31.0,23.8,05.8,0000.0,0003.23,0001.09,0000.48
2022-04-13 07:52:00,,0817.3,5.00,0.00,22.1,22.8,00.0,31.1,24.1,05.8,0000.0,0003.00,0001.10,0000.48
2022-04-13 07:53:00,,0817.4,5.01,0.00,22.3,23.2,00.0,31.1,24.3,05.7,0000.0,0003.00,0001.07,0000.47
2022-04-13 07:54:00,,0817.4,4.99,0.00,22.3,22.9,00.0,31.1,24.3,05.7,0000.0,0002.45,0001.02,0000.47
2022-04-13 07:55:00,,0817.3,4.99,0.00,22.3,22.6,00.0,31.1,24.2,05.6,0000.0,0002.36,0001.04,0000.46
2022-04-13 07:56:00,,0817.4,5.00,0.00,22.3,22.4,00.0,31.1,24.2,05.6,0000.0,0002.35,0001.04,0000.46
2022-04-13 07:57:00,,0817.3,5.01,0.00,22.3,22.1,00.0,31.1,24.1,05.6,0000.0,0002.43,0001.04,0000.47
2022-04-13 07:58:00,,0817.4,5.00,0.00,22.3,21.9,00.0,31.2,24.1,05.5,0000.0,0002.41,0001.01,0000.46
2022-04-13 07:59:00,,0817.3,4.99,0.00,22.3,21.8,00.0,31.2,24.0,05.4,0000.0,0002.32,0001.00,0000.47
